Weather in Belovo

Russia / Kemerovo Oblast     54˚25′19″N   86˚18′13″E
temp.,
°C
wind,
m/s
gust,
m/s
humid.,
%
clouds,
%
prec.,
mm/h
давл.,
hPa
HPBL,
m
27 november, fri
fri2701:00−16˚ese12880 0.0 104220
04:00−16˚ese22870 0.0 104120
07:00−16˚ese22890 0.0 104220
10:00−16˚ese22880 0.0 104021
13:00−12˚ese35870 0.0 1040182
16:00−13˚ese23870 0.0 103942
19:00−15˚ese22870 0.0 103920
22:00−15˚ese22870 0.0 103920
28 november, sat
sat2801:00−15˚se22870 0.0 103920
04:00−15˚ese23880 0.0 103820
07:00−15˚ese22880 0.0 103920
10:00−14˚ese23870 0.0 103820
13:00−11˚ese23860 0.0 103799
16:00−12˚ene12820 0.0 103721
19:00−14˚ne11800 0.0 103720
22:00−15˚nnw00820 0.0 103620
29 november, sun
sun2901:00−15˚nnw01850 0.0 103620
04:00−15˚ne22860 0.0 103720
07:00−16˚sw00866 0.0 103820
10:00−15˚se128529 0.0 103920
13:00−11˚ese228518 0.0 104087
16:00−12˚ese22861 0.0 104121
19:00−14˚se11870 0.0 104220
22:00−15˚ese11870 0.0 104320
30 november, mon
mon3001:00−15˚ese11880 0.0 104420
04:00−16˚se11890 0.0 104420
07:00−16˚ese01910 0.0 104520
10:00−16˚s11935 0.0 104620
13:00−12˚se009437 0.0 104646
16:00−13˚nw019693 0.0 104620
19:00−15˚wsw119893 0.1 104720
22:00−14˚wnw0097100 0.0 104720
1 december, tue
tue101:00−15˚n1197100 0.1 104720
04:00−15˚n1196100 0.1 104820
07:00−16˚nnw1196100 0.1 104820
10:00−18˚n119794 0.0 104920
13:00−14˚nnw009385 0.0 104980
16:00−16˚ne019431 0.0 104920
19:00−17˚s119650 0.0 105020
22:00−18˚sse119618 0.0 105020